﻿測定場所 (Monitoring sites),日付 (Measurement date),時間 (Measurement time),線量率 最大値 (max) μGy/h,線量率 最小値 (min) μGy/h,線量率 平均値 (average) μGy/h,
足立 (Adachi),2018-05-06,23:01～24:00,0.0460,0.0374,0.0409,
足立 (Adachi),2018-05-06,22:01～23:00,0.0453,0.0330,0.0382,
足立 (Adachi),2018-05-06,21:01～22:00,0.0358,0.0312,0.0338,
足立 (Adachi),2018-05-06,20:01～21:00,0.0324,0.0294,0.0312,
足立 (Adachi),2018-05-06,19:01～20:00,0.0336,0.0291,0.0313,
足立 (Adachi),2018-05-06,18:01～19:00,0.0331,0.0291,0.0310,
足立 (Adachi),2018-05-06,17:01～18:00,0.0334,0.0294,0.0312,
足立 (Adachi),2018-05-06,16:01～17:00,0.0333,0.0293,0.0313,
足立 (Adachi),2018-05-06,15:01～16:00,0.0336,0.0287,0.0314,
足立 (Adachi),2018-05-06,14:01～15:00,0.0332,0.0302,0.0315,
足立 (Adachi),2018-05-06,13:01～14:00,0.0336,0.0296,0.0317,
足立 (Adachi),2018-05-06,12:01～13:00,0.0341,0.0299,0.0316,
足立 (Adachi),2018-05-06,11:01～12:00,0.0333,0.0301,0.0319,
足立 (Adachi),2018-05-06,10:01～11:00,0.0339,0.0302,0.0320,
足立 (Adachi),2018-05-06,09:01～10:00,0.0338,0.0303,0.0321,
足立 (Adachi),2018-05-06,08:01～09:00,0.0350,0.0305,0.0325,
足立 (Adachi),2018-05-06,07:01～08:00,0.0345,0.0305,0.0326,
足立 (Adachi),2018-05-06,06:01～07:00,0.0339,0.0302,0.0321,
足立 (Adachi),2018-05-06,05:01～06:00,0.0340,0.0303,0.0322,
足立 (Adachi),2018-05-06,04:01～05:00,0.0343,0.0298,0.0321,
足立 (Adachi),2018-05-06,03:01～04:00,0.0341,0.0291,0.0317,
足立 (Adachi),2018-05-06,02:01～03:00,0.0341,0.0300,0.0319,
足立 (Adachi),2018-05-06,01:01～02:00,0.0332,0.0300,0.0317,
足立 (Adachi),2018-05-06,00:01～01:00,0.0329,0.0293,0.0315,
足立 (Adachi),2018-05-05,23:01～24:00,0.0336,0.0297,0.0314,
足立 (Adachi),2018-05-05,22:01～23:00,0.0332,0.0284,0.0312,
足立 (Adachi),2018-05-05,21:01～22:00,0.0328,0.0293,0.0312,
足立 (Adachi),2018-05-05,20:01～21:00,0.0333,0.0294,0.0313,
足立 (Adachi),2018-05-05,19:01～20:00,0.0334,0.0292,0.0310,
足立 (Adachi),2018-05-05,18:01～19:00,0.0327,0.0293,0.0313,
足立 (Adachi),2018-05-05,17:01～18:00,0.0327,0.0293,0.0312,
足立 (Adachi),2018-05-05,16:01～17:00,0.0336,0.0299,0.0314,
足立 (Adachi),2018-05-05,15:01～16:00,0.0328,0.0296,0.0312,
足立 (Adachi),2018-05-05,14:01～15:00,0.0327,0.0296,0.0309,
足立 (Adachi),2018-05-05,13:01～14:00,0.0322,0.0293,0.0308,
足立 (Adachi),2018-05-05,12:01～13:00,0.0329,0.0289,0.0309,
足立 (Adachi),2018-05-05,11:01～12:00,0.0326,0.0291,0.0310,
足立 (Adachi),2018-05-05,10:01～11:00,0.0331,0.0292,0.0312,
足立 (Adachi),2018-05-05,09:01～10:00,0.0326,0.0289,0.0310,
足立 (Adachi),2018-05-05,08:01～09:00,0.0337,0.0293,0.0316,
足立 (Adachi),2018-05-05,07:01～08:00,0.0339,0.0293,0.0315,
足立 (Adachi),2018-05-05,06:01～07:00,0.0331,0.0297,0.0317,
足立 (Adachi),2018-05-05,05:01～06:00,0.0338,0.0298,0.0318,
足立 (Adachi),2018-05-05,04:01～05:00,0.0333,0.0292,0.0313,
足立 (Adachi),2018-05-05,03:01～04:00,0.0328,0.0293,0.0312,
足立 (Adachi),2018-05-05,02:01～03:00,0.0325,0.0290,0.0308,
足立 (Adachi),2018-05-05,01:01～02:00,0.0329,0.0292,0.0309,
足立 (Adachi),2018-05-05,00:01～01:00,0.0329,0.0285,0.0310,
足立 (Adachi),2018-05-04,23:01～24:00,0.0333,0.0293,0.0308,
足立 (Adachi),2018-05-04,22:01～23:00,0.0328,0.0290,0.0310,
足立 (Adachi),2018-05-04,21:01～22:00,0.0328,0.0296,0.0310,
足立 (Adachi),2018-05-04,20:01～21:00,0.0333,0.0294,0.0312,
足立 (Adachi),2018-05-04,19:01～20:00,0.0336,0.0286,0.0309,
足立 (Adachi),2018-05-04,18:01～19:00,0.0331,0.0292,0.0311,
足立 (Adachi),2018-05-04,17:01～18:00,0.0334,0.0299,0.0310,
足立 (Adachi),2018-05-04,16:01～17:00,0.0329,0.0294,0.0309,
足立 (Adachi),2018-05-04,15:01～16:00,0.0329,0.0288,0.0309,
足立 (Adachi),2018-05-04,14:01～15:00,0.0324,0.0288,0.0308,
足立 (Adachi),2018-05-04,13:01～14:00,0.0324,0.0295,0.0310,
足立 (Adachi),2018-05-04,12:01～13:00,0.0331,0.0293,0.0307,
足立 (Adachi),2018-05-04,11:01～12:00,0.0329,0.0287,0.0307,
足立 (Adachi),2018-05-04,10:01～11:00,0.0330,0.0292,0.0309,
足立 (Adachi),2018-05-04,09:01～10:00,0.0335,0.0290,0.0310,
足立 (Adachi),2018-05-04,08:01～09:00,0.0327,0.0292,0.0310,
足立 (Adachi),2018-05-04,07:01～08:00,0.0325,0.0292,0.0309,
足立 (Adachi),2018-05-04,06:01～07:00,0.0323,0.0293,0.0307,
足立 (Adachi),2018-05-04,05:01～06:00,0.0322,0.0297,0.0307,
足立 (Adachi),2018-05-04,04:01～05:00,0.0328,0.0289,0.0312,
足立 (Adachi),2018-05-04,03:01～04:00,0.0328,0.0286,0.0311,
足立 (Adachi),2018-05-04,02:01～03:00,0.0329,0.0279,0.0309,
足立 (Adachi),2018-05-04,01:01～02:00,0.0335,0.0287,0.0311,
足立 (Adachi),2018-05-04,00:01～01:00,0.0327,0.0293,0.0309,
足立 (Adachi),2018-05-03,23:01～24:00,0.0332,0.0290,0.0311,
足立 (Adachi),2018-05-03,22:01～23:00,0.0329,0.0287,0.0309,
足立 (Adachi),2018-05-03,21:01～22:00,0.0331,0.0284,0.0309,
足立 (Adachi),2018-05-03,20:01～21:00,0.0329,0.0279,0.0306,
足立 (Adachi),2018-05-03,19:01～20:00,0.0328,0.0289,0.0308,
足立 (Adachi),2018-05-03,18:01～19:00,0.0329,0.0287,0.0310,
足立 (Adachi),2018-05-03,17:01～18:00,0.0336,0.0290,0.0309,
足立 (Adachi),2018-05-03,16:01～17:00,0.0333,0.0283,0.0313,
足立 (Adachi),2018-05-03,15:01～16:00,0.0327,0.0296,0.0311,
足立 (Adachi),2018-05-03,14:01～15:00,0.0336,0.0299,0.0312,
足立 (Adachi),2018-05-03,13:01～14:00,0.0330,0.0286,0.0308,
足立 (Adachi),2018-05-03,12:01～13:00,0.0330,0.0287,0.0307,
足立 (Adachi),2018-05-03,11:01～12:00,0.0321,0.0289,0.0307,
足立 (Adachi),2018-05-03,10:01～11:00,0.0331,0.0293,0.0313,
足立 (Adachi),2018-05-03,09:01～10:00,0.0380,0.0309,0.0343,
足立 (Adachi),2018-05-03,08:01～09:00,0.0547,0.0365,0.0438,
足立 (Adachi),2018-05-03,07:01～08:00,0.0566,0.0479,0.0525,
足立 (Adachi),2018-05-03,06:01～07:00,0.0568,0.0415,0.0496,
足立 (Adachi),2018-05-03,05:01～06:00,0.0522,0.0403,0.0466,
足立 (Adachi),2018-05-03,04:01～05:00,0.0430,0.0345,0.0378,
足立 (Adachi),2018-05-03,03:01～04:00,0.0424,0.0355,0.0380,
足立 (Adachi),2018-05-03,02:01～03:00,0.0368,0.0318,0.0343,
足立 (Adachi),2018-05-03,01:01～02:00,0.0351,0.0313,0.0331,
足立 (Adachi),2018-05-03,00:01～01:00,0.0353,0.0318,0.0334,
足立 (Adachi),2018-05-02,23:01～24:00,0.0360,0.0322,0.0338,
足立 (Adachi),2018-05-02,22:01～23:00,0.0353,0.0308,0.0332,
足立 (Adachi),2018-05-02,21:01～22:00,0.0388,0.0318,0.0348,
足立 (Adachi),2018-05-02,20:01～21:00,0.0500,0.0361,0.0432,
足立 (Adachi),2018-05-02,19:01～20:00,0.0462,0.0370,0.0417,
足立 (Adachi),2018-05-02,18:01～19:00,0.0413,0.0341,0.0368,
足立 (Adachi),2018-05-02,17:01～18:00,0.0371,0.0295,0.0329,
足立 (Adachi),2018-05-02,16:01～17:00,0.0333,0.0294,0.0311,
足立 (Adachi),2018-05-02,15:01～16:00,0.0338,0.0299,0.0314,
足立 (Adachi),2018-05-02,14:01～15:00,0.0334,0.0286,0.0310,
足立 (Adachi),2018-05-02,13:01～14:00,0.0329,0.0296,0.0313,
足立 (Adachi),2018-05-02,12:01～13:00,0.0336,0.0297,0.0312,
足立 (Adachi),2018-05-02,11:01～12:00,0.0330,0.0296,0.0309,
足立 (Adachi),2018-05-02,10:01～11:00,0.0332,0.0286,0.0311,
足立 (Adachi),2018-05-02,09:01～10:00,0.0332,0.0288,0.0308,
足立 (Adachi),2018-05-02,08:01～09:00,0.0335,0.0288,0.0309,
足立 (Adachi),2018-05-02,07:01～08:00,0.0342,0.0297,0.0314,
足立 (Adachi),2018-05-02,06:01～07:00,0.0338,0.0292,0.0318,
足立 (Adachi),2018-05-02,05:01～06:00,0.0336,0.0296,0.0317,
足立 (Adachi),2018-05-02,04:01～05:00,0.0339,0.0296,0.0319,
足立 (Adachi),2018-05-02,03:01～04:00,0.0327,0.0297,0.0311,
足立 (Adachi),2018-05-02,02:01～03:00,0.0338,0.0296,0.0313,
足立 (Adachi),2018-05-02,01:01～02:00,0.0330,0.0291,0.0312,
足立 (Adachi),2018-05-02,00:01～01:00,0.0325,0.0296,0.0310,
足立 (Adachi),2018-05-01,23:01～24:00,0.0325,0.0288,0.0308,
足立 (Adachi),2018-05-01,22:01～23:00,0.0331,0.0291,0.0310,
足立 (Adachi),2018-05-01,21:01～22:00,0.0326,0.0292,0.0310,
足立 (Adachi),2018-05-01,20:01～21:00,0.0348,0.0286,0.0309,
足立 (Adachi),2018-05-01,19:01～20:00,0.0332,0.0295,0.0315,
足立 (Adachi),2018-05-01,18:01～19:00,0.0326,0.0291,0.0309,
足立 (Adachi),2018-05-01,17:01～18:00,0.0332,0.0289,0.0311,
足立 (Adachi),2018-05-01,16:01～17:00,0.0326,0.0294,0.0312,
足立 (Adachi),2018-05-01,15:01～16:00,0.0336,0.0293,0.0312,
足立 (Adachi),2018-05-01,14:01～15:00,0.0332,0.0297,0.0317,
足立 (Adachi),2018-05-01,13:01～14:00,0.0335,0.0291,0.0316,
足立 (Adachi),2018-05-01,12:01～13:00,0.0332,0.0297,0.0314,
足立 (Adachi),2018-05-01,11:01～12:00,0.0337,0.0297,0.0314,
足立 (Adachi),2018-05-01,10:01～11:00,0.0336,0.0301,0.0316,
足立 (Adachi),2018-05-01,09:01～10:00,0.0332,0.0296,0.0314,
足立 (Adachi),2018-05-01,08:01～09:00,0.0345,0.0300,0.0317,
足立 (Adachi),2018-05-01,07:01～08:00,0.0335,0.0286,0.0316,
足立 (Adachi),2018-05-01,06:01～07:00,0.0337,0.0299,0.0317,
足立 (Adachi),2018-05-01,05:01～06:00,0.0331,0.0295,0.0312,
足立 (Adachi),2018-05-01,04:01～05:00,0.0322,0.0293,0.0309,
足立 (Adachi),2018-05-01,03:01～04:00,0.0335,0.0297,0.0313,
足立 (Adachi),2018-05-01,02:01～03:00,0.0334,0.0288,0.0313,
足立 (Adachi),2018-05-01,01:01～02:00,0.0338,0.0290,0.0312,
足立 (Adachi),2018-05-01,00:01～01:00,0.0334,0.0286,0.0312,
足立 (Adachi),2018-04-30,23:01～24:00,0.0332,0.0280,0.0310,
足立 (Adachi),2018-04-30,22:01～23:00,0.0328,0.0290,0.0311,
足立 (Adachi),2018-04-30,21:01～22:00,0.0326,0.0285,0.0306,
足立 (Adachi),2018-04-30,20:01～21:00,0.0332,0.0289,0.0309,
足立 (Adachi),2018-04-30,19:01～20:00,0.0327,0.0288,0.0307,
足立 (Adachi),2018-04-30,18:01～19:00,0.0334,0.0289,0.0309,
足立 (Adachi),2018-04-30,17:01～18:00,0.0328,0.0285,0.0306,
足立 (Adachi),2018-04-30,16:01～17:00,0.0334,0.0289,0.0309,
足立 (Adachi),2018-04-30,15:01～16:00,0.0330,0.0280,0.0307,
足立 (Adachi),2018-04-30,14:01～15:00,0.0325,0.0285,0.0308,
足立 (Adachi),2018-04-30,13:01～14:00,0.0319,0.0283,0.0303,
足立 (Adachi),2018-04-30,12:01～13:00,0.0324,0.0284,0.0304,
足立 (Adachi),2018-04-30,11:01～12:00,0.0325,0.0279,0.0308,
足立 (Adachi),2018-04-30,10:01～11:00,0.0325,0.0286,0.0304,
足立 (Adachi),2018-04-30,09:01～10:00,0.0323,0.0285,0.0307,
足立 (Adachi),2018-04-30,08:01～09:00,0.0332,0.0287,0.0308,
足立 (Adachi),2018-04-30,07:01～08:00,0.0333,0.0287,0.0307,
足立 (Adachi),2018-04-30,06:01～07:00,0.0322,0.0290,0.0308,
足立 (Adachi),2018-04-30,05:01～06:00,0.0328,0.0290,0.0307,
足立 (Adachi),2018-04-30,04:01～05:00,0.0329,0.0287,0.0305,
足立 (Adachi),2018-04-30,03:01～04:00,0.0329,0.0279,0.0308,
足立 (Adachi),2018-04-30,02:01～03:00,0.0326,0.0290,0.0307,
足立 (Adachi),2018-04-30,01:01～02:00,0.0322,0.0279,0.0305,
足立 (Adachi),2018-04-30,00:01～01:00,0.0319,0.0288,0.0303,
